Lapse_Rate
2.3 2.3 2.1 1.9 1.8 1.6 1.4 1.2 1.2 1.1 0.9 0.8 0.9 0.3 -0.1 -0.6 -1.5 -2.0 1.0 3.1 2.1 4.2 4.0 3.2 4.8 5.2 4.8 5.0 4.6 3.3 6.5 6.5 6.5 6.5 6.5 5.9 6.3 5.1 4.7 5.3 4.2 5.0 4.8 3.9 3.2
2.2 2.1 1.9 1.8 1.7 1.6 1.3 1.3 1.2 1.1 0.9 0.7 0.7 0.1 -0.1 -0.5 -2.2 -0.1 3.0 3.8 3.8 4.6 4.3 4.4 5.0 5.5 4.0 5.3 4.3 5.4 6.5 6.5 6.5 6.5 6.5 6.0 6.2 5.5 5.6 5.0 5.3 5.1 4.2 2.8 2.3
2.4 2.4 2.2 2.1 1.9 1.7 1.6 1.4 1.4 1.2 1.1 0.8 0.5 -0.1 -0.3 -1.0 1.7 5.5 4.2 4.2 4.8 4.6 4.9 5.5 5.1 6.1 5.9 5.6 5.6 5.9 6.5 6.5 6.2 5.3 5.7 6.1 5.7 5.8 6.1 6.5 4.6 5.4 4.7 4.1 3.9
2.7 2.5 2.4 2.1 1.9 1.7 1.6 1.6 1.6 1.5 1.4 0.9 0.4 0.1 -0.1 -0.7 6.5 5.2 4.9 4.7 4.6 3.8 5.2 5.4 5.9 5.6 6.3 6.5 5.7 6.5 5.8 5.9 5.6 5.9 5.5 6.4 5.7 6.1 4.8 4.9 5.9 4.1 4.6 4.7 3.9
2.4 2.3 2.3 2.1 2.0 1.7 1.6 1.6 1.6 1.5 1.1 0.5 0.2 0.2 0.7 4.0 4.0 5.0 4.5 4.4 3.2 3.3 4.4 5.2 5.8 5.6 6.5 6.3 6.2 6.5 6.4 5.5 4.9 4.4 4.3 4.9 5.4 6.0 5.0 3.6 2.7 3.0 2.8 2.6 2.7
2.6 2.7 2.7 2.5 2.1 1.8 1.6 1.7 1.5 1.1 0.4 0.0 -0.0 0.1 2.0 6.1 5.3 4.3 3.6 3.8 3.7 3.8 3.9 4.6 5.1 4.8 5.6 6.1 6.4 6.2 6.0 5.6 4.7 4.8 5.3 6.2 5.8 6.0 4.0 4.2 3.6 3.6 2.6 1.7 1.8
2.8 2.8 2.8 2.5 2.0 1.6 1.4 1.7 1.2 0.8 0.4 0.5 0.4 0.8 3.2 3.8 4.6 4.0 4.4 5.0 4.2 4.5 4.2 4.5 5.7 6.0 5.9 6.5 6.0 5.9 6.5 6.4 6.0 5.8 6.4 5.0 6.5 6.5 3.8 4.1 2.9 3.0 2.6 2.3 1.5
2.9 3.0 2.7 2.1 1.5 1.0 1.0 1.3 0.8 0.8 1.1 0.8 1.0 1.8 3.1 4.9 4.4 5.2 4.8 5.8 5.3 5.4 6.3 5.6 6.0 6.4 6.1 6.2 5.5 6.5 6.5 6.5 6.5 6.4 5.8 6.3 6.5 6.5 4.5 5.0 3.7 2.6 1.3 1.4 1.5
2.8 2.7 2.3 2.1 1.5 1.2 0.8 0.7 0.5 1.4 1.6 1.6 2.3 3.1 4.1 5.5 6.4 6.2 5.8 6.4 6.4 5.6 6.0 7.2 6.4 5.2 5.8 6.5 6.5 6.5 6.5 6.5 6.5 6.4 6.5 6.5 6.5 6.4 4.2 4.6 4.0 2.3 1.7 1.4 1.0
3.1 2.8 2.5 2.3 1.8 1.7 0.9 0.8 1.3 2.2 2.4 2.3 4.0 5.0 5.4 6.2 6.0 5.6 5.7 6.2 6.4 6.0 6.4 6.0 3.3 6.5 6.5 6.5 6.5 6.5 6.5 6.5 6.5 6.5 6.5 6.5 6.5 6.5 4.2 4.2 3.7 2.2 1.5 1.2 1.4
3.5 3.1 2.4 2.2 2.1 1.8 0.8 0.1 1.7 3.3 1.3 4.8 4.1 4.7 4.3 4.2 4.5 4.7 4.2 5.5 6.0 5.4 6.5 5.9 6.5 6.5 6.5 6.5 6.5 6.5 6.5 6.5 6.5 6.5 6.5 6.5 6.5 6.5 5.2 4.4 4.5 3.3 3.1 3.2 3.1
3.6 3.1 2.3 2.3 2.4 2.9 1.9 3.0 5.6 5.0 4.6 1.9 3.3 4.0 3.6 4.7 6.1 5.6 5.7 6.0 6.0 6.5 6.5 6.5 6.5 6.5 6.5 6.5 6.5 6.5 6.5 6.5 6.5 6.5 6.5 6.5 6.5 6.5 6.5 5.8 4.9 5.0 4.5 5.6 4.9
4.2 3.9 2.2 2.2 2.3 2.2 2.7 4.1 3.5 5.8 5.4 4.4 4.3 4.9 6.2 4.9 6.1 5.8 6.4 5.8 6.4 6.5 6.5 6.5 6.5 6.5 6.5 6.5 6.5 6.5 6.5 6.5 6.5 6.5 6.5 6.5 6.5 6.5 6.5 5.5 5.2 5.1 5.8 5.2 5.9
4.1 3.8 2.9 2.2 3.4 1.6 4.0 2.6 2.7 4.5 6.5 6.5 6.3 6.6 6.4 6.3 6.4 5.9 4.6 6.4 6.4 6.5 6.5 6.5 6.3 6.5 6.5 6.5 6.5 6.5 6.5 6.5 6.5 6.5 6.5 6.5 6.5 6.5 6.5 6.5 6.5 6.4 6.4 6.0 5.9
4.5 4.2 2.7 3.6 2.4 4.3 4.4 2.5 2.7 3.6 6.5 6.5 6.5 7.1 6.2 6.2 5.8 5.9 4.4 6.1 6.5 6.5 6.5 6.5 6.5 6.5 6.5 6.5 6.5 6.5 6.5 6.5 6.5 6.5 6.5 6.5 6.5 6.5 6.5 6.5 6.5 6.4 6.8 6.6 6.2
4.4 4.0 2.8 3.1 1.7 3.6 3.3 2.0 2.7 6.5 6.5 6.5 6.3 6.5 6.5 5.7 6.0 5.0 4.4 3.4 5.6 6.5 6.5 6.5 6.3 6.5 6.5 6.5 6.5 6.5 6.5 6.5 6.5 6.5 6.5 6.5 6.5 6.5 6.5 6.5 6.5 6.4 6.7 6.8 6.9
4.4 3.8 3.4 4.3 4.4 4.4 3.5 2.8 6.5 6.5 6.5 6.5 6.5 6.5 6.5 6.5 6.5 6.5 6.5 6.5 6.5 6.5 6.5 6.5 6.5 6.5 6.4 6.5 6.5 6.5 6.5 6.5 6.5 6.5 6.5 6.5 6.5 6.5 6.5 6.5 6.5 6.4 6.6 6.7 5.8
4.1 3.5 3.2 4.9 5.0 4.9 4.4 6.2 6.5 6.5 6.5 6.5 6.5 6.5 6.5 6.5 6.5 6.5 6.5 6.5 6.5 6.5 6.5 6.5 6.5 6.5 6.5 6.5 6.5 6.5 6.5 6.5 6.5 6.5 6.5 6.5 6.5 6.5 6.5 6.4 6.2 6.6 6.9 6.9 6.2
2.9 3.9 5.1 3.3 5.0 5.2 6.2 6.5 6.5 6.5 6.5 6.5 6.5 6.5 6.5 6.5 6.5 6.5 6.5 6.5 6.5 6.5 6.5 6.5 6.5 6.5 6.5 6.5 6.5 6.5 6.5 6.5 6.5 6.5 6.5 6.5 6.5 6.5 6.5 6.5 6.4 6.3 6.6 6.8 6.9
2.8 4.6 5.0 4.8 5.7 6.2 6.4 6.5 6.5 6.4 6.5 6.5 6.5 6.5 6.5 6.5 6.5 6.5 6.5 6.5 6.5 6.5 6.3 6.5 6.5 6.5 6.5 6.5 6.4 6.5 6.5 6.5 6.5 6.5 6.5 6.5 6.5 6.5 6.5 6.5 6.5 6.4 6.2 6.6 6.7
4.8 5.3 3.9 3.7 6.8 6.5 6.5 6.5 6.5 5.7 6.1 6.5 6.5 6.5 6.5 6.5 6.5 6.5 6.5 6.5 6.5 6.5 6.4 6.5 6.5 6.5 6.5 6.5 6.5 6.5 6.5 6.5 6.5 6.5 6.5 6.5 6.5 6.5 6.5 6.5 6.5 6.3 6.5 6.3 6.7
4.4 6.5 3.0 4.9 6.3 6.1 6.5 6.5 6.6 6.4 5.8 6.5 6.5 6.5 6.5 6.5 6.5 6.5 6.5 6.5 6.0 6.1 6.5 6.5 6.5 6.5 6.5 6.5 6.5 6.5 6.5 6.5 6.5 6.5 6.5 6.5 6.5 6.5 6.5 6.4 6.3 6.2 6.4 6.8 6.4
5.1 4.2 4.8 5.3 6.5 6.5 6.4 6.5 6.6 6.5 6.5 6.5 6.5 6.5 6.5 6.5 6.5 6.5 6.5 6.6 6.1 6.5 6.5 6.5 6.5 6.5 6.5 6.5 6.5 6.5 6.5 6.5 6.5 6.5 6.5 6.5 6.5 6.5 6.4 6.4 6.3 6.3 6.2 6.3 6.1
3.4 6.5 5.6 5.5 6.1 6.5 6.5 6.5 6.5 6.4 6.6 6.7 6.5 6.6 6.5 6.5 6.5 6.5 6.5 6.5 6.7 6.5 7.0 6.4 6.5 6.5 6.5 6.5 6.5 6.5 6.5 6.5 6.5 6.5 6.5 6.5 6.5 6.5 6.5 6.5 6.4 6.4 6.4 5.7 6.2
4.0 6.4 5.9 6.5 6.4 6.5 6.6 6.5 6.5 6.5 6.7 6.8 6.5 6.5 6.5 6.5 6.5 6.5 6.5 6.5 6.5 6.7 6.4 6.5 6.5 6.5 6.5 6.5 6.5 6.5 6.5 6.5 6.5 6.5 6.5 6.5 6.5 6.5 6.5 6.5 6.3 6.4 6.5 6.5 6.4
4.8 5.4 5.0 6.0 5.9 6.5 6.5 6.5 6.5 6.5 6.5 6.5 6.5 6.5 6.5 6.5 6.5 6.5 6.5 6.5 6.5 6.5 6.5 6.5 6.5 6.5 6.5 6.5 6.5 6.5 6.5 6.5 6.5 6.5 6.5 6.5 6.5 6.5 6.2 5.9 6.2 6.2 6.2 6.3 5.6
2.5 4.0 5.8 6.5 6.8 6.5 6.5 6.5 6.5 6.5 6.5 6.5 6.5 6.5 6.5 6.5 6.4 6.0 6.0 5.6 6.1 6.5 6.5 6.5 6.5 6.5 6.5 6.5 6.5 6.5 6.5 6.5 6.5 6.5 6.5 6.5 6.5 6.5 6.5 6.5 6.6 6.6 6.4 6.4 6.3
Wind_Speed
19 20 21 22 22 22 22 22 23 23 23 22 21 20 19 18 14 1 4 4 1 4 6 5 2 2 3 2 3 3 4 2 4 5 4 3 7 4 3 2 5 3 3 3 1
18 18 20 21 21 22 22 23 23 23 22 21 20 19 18 18 3 4 6 3 4 5 4 4 3 2 3 1 2 4 3 6 4 3 1 4 2 6 6 5 4 4 3 6 3
19 20 20 22 23 24 24 24 25 24 23 22 21 19 18 11 3 1 2 3 0 7 3 2 4 2 1 2 2 3 5 3 4 4 3 4 5 3 4 6 6 5 6 2 1
18 20 21 23 25 26 26 26 26 26 24 23 21 17 17 0 2 3 3 4 5 7 3 4 4 3 1 3 2 1 6 4 5 1 4 4 3 3 8 11 3 8 4 5 6
20 21 23 24 26 27 28 27 27 26 25 22 18 13 4 3 6 0 6 8 6 5 5 4 4 3 1 2 1 3 4 5 7 8 7 3 8 6 7 13 9 9 8 10 9
20 22 23 24 27 28 29 29 30 29 25 19 12 8 1 2 1 4 7 4 4 4 5 5 5 6 4 3 3 1 4 6 7 7 5 6 7 4 10 6 10 7 10 10 9
19 21 23 25 28 30 33 33 31 31 23 8 4 2 0 9 3 3 2 2 4 4 5 5 5 3 2 3 1 2 5 8 7 4 4 4 4 6 5 6 9 9 9 8 10
17 19 22 23 27 30 33 32 28 22 7 4 1 1 5 3 4 2 2 2 2 2 1 4 4 2 3 1 5 3 3 3 5 3 4 2 7 7 5 6 9 10 8 7 7
16 18 19 22 26 30 35 33 19 2 4 4 2 2 7 7 2 1 1 1 1 3 2 2 4 3 3 4 4 3 5 3 7 1 3 3 6 6 16 6 10 10 11 8 9
15 17 19 22 26 31 36 29 6 3 1 2 2 2 2 1 4 4 2 2 2 3 2 3 3 3 3 4 6 5 4 4 4 4 10 13 16 7 9 9 11 10 11 11 10
15 16 17 20 25 31 15 5 6 4 7 4 4 5 4 7 2 4 4 2 3 4 4 1 2 6 11 8 3 2 4 7 4 8 5 9 15 11 9 9 10 13 11 9 10
13 15 16 19 23 21 6 5 3 4 9 4 6 5 6 3 4 3 4 4 3 5 2 3 7 9 5 3 4 4 4 6 6 8 4 8 16 11 10 9 6 7 11 15 16
13 12 13 19 22 5 3 3 6 2 4 6 4 3 1 6 1 4 2 2 3 2 3 5 4 6 4 2 3 3 5 5 11 3 3 5 8 4 4 4 6 8 10 13 17
14 9 10 22 5 4 2 6 5 2 4 6 2 2 3 1 3 3 4 1 2 4 3 5 5 3 3 5 6 3 8 11 7 2 2 2 6 6 3 5 10 15 16 17 19
12 8 5 8 3 3 5 12 3 2 5 2 1 1 2 3 2 3 2 2 2 2 4 5 2 3 4 4 5 8 1 3 3 4 1 3 1 7 4 5 9 15 16 17 18
10 5 2 3 2 4 11 7 2 5 7 3 3 4 3 5 4 5 5 7 2 1 1 5 1 3 4 5 3 5 3 3 3 1 3 5 7 7 3 4 6 11 14 17 19
8 6 4 3 2 7 8 3 4 4 6 3 3 4 2 2 2 4 4 4 1 1 2 3 1 4 4 4 2 6 3 2 3 1 6 1 2 6 5 6 5 10 13 14 17
7 11 4 2 2 7 3 4 4 3 6 2 2 2 2 3 2 2 2 2 2 2 2 4 4 4 6 2 1 3 1 3 6 3 4 5 5 2 6 3 3 8 12 16 19
11 2 1 3 10 2 2 2 7 6 2 5 4 1 2 2 1 1 2 4 3 3 7 5 4 2 2 3 2 1 3 1 0 3 1 4 3 3 4 10 12 14 15 17 17
2 3 3 7 11 2 2 6 5 4 3 2 5 7 6 4 3 3 6 4 4 3 3 4 2 1 1 1 6 4 0 2 2 1 4 5 5 4 7 9 12 15 14 13 14
2 1 1 7 4 2 4 7 5 6 4 6 7 11 8 6 6 4 3 1 4 1 2 3 1 2 1 6 2 3 1 4 2 1 3 4 5 5 5 6 10 12 13 12 11
2 2 3 2 3 3 4 6 4 4 2 5 3 5 8 8 7 7 9 3 6 5 5 1 3 2 2 4 5 2 2 3 4 3 2 1 8 4 6 11 12 13 14 13 12
1 2 2 3 4 3 3 5 5 4 6 3 5 2 4 4 4 3 3 3 4 3 5 6 2 3 2 1 3 2 1 3 3 2 5 3 7 4 17 23 27 24 15 14 13
3 1 2 2 2 2 2 5 4 3 3 1 3 6 3 2 2 2 2 1 2 0 4 4 1 3 4 3 4 2 3 3 5 2 4 10 22 16 19 19 20 22 16 12 16
2 1 1 3 4 7 1 3 2 2 2 1 3 9 6 6 5 6 7 2 0 3 3 3 3 3 2 1 3 6 6 6 7 6 4 15 15 21 19 18 19 19 18 16 18
1 2 2 2 1 3 7 4 6 5 5 4 9 9 12 7 9 7 8 7 6 3 3 2 3 1 2 3 3 8 10 9 12 12 9 18 23 18 15 13 16 16 13 13 16
1 2 1 3 3 2 4 7 8 4 8 7 11 6 14 12 1 2 10 2 5 7 4 4 5 3 2 3 5 5 6 5 2 4 6 7 14 12 20 21 21 19 12 12 16
Wind_Direction
358 357 356 355 352 350 346 344 342 338 335 334 336 337 333 328 323 111 261 212 189 148 94 110 78 55 47 88 91 131 59 246 254 166 256 334 21 315 276 281 344 295 225 243 143
353 352 352 349 346 344 340 337 336 333 331 329 333 333 329 333 305 264 257 185 220 155 93 124 133 94 40 34 25 91 121 226 222 227 294 320 357 327 339 338 313 317 316 3 166
351 349 346 344 342 341 336 333 333 330 327 324 326 328 324 335 313 323 150 192 291 152 90 104 103 91 68 34 204 159 197 217 265 247 304 307 309 248 287 289 214 258 282 50 102
345 344 344 342 340 339 335 331 331 327 322 318 316 318 320 339 358 1 106 110 115 123 77 82 63 78 121 232 175 260 259 237 283 248 323 270 273 257 206 257 249 242 270 309 193
344 344 343 340 337 334 331 328 327 322 318 312 305 309 333 352 250 314 105 116 103 117 144 134 123 128 267 250 330 207 269 280 270 291 271 280 254 232 248 264 246 245 262 255 252
339 340 340 337 333 331 329 327 325 319 318 304 285 292 201 256 114 138 131 128 136 124 157 145 180 188 194 219 174 252 257 271 287 275 250 238 274 143 277 269 275 259 239 242 244
335 337 338 336 333 330 327 324 324 321 321 316 254 274 75 241 66 357 172 209 177 163 153 188 165 141 152 301 282 276 307 319 273 272 262 157 279 224 278 318 295 300 286 280 257
330 334 335 334 329 326 322 319 319 319 355 68 118 353 247 281 336 316 161 290 191 195 188 171 153 132 156 191 11 341 57 328 293 348 296 109 275 303 335 339 306 313 299 285 262
323 325 328 331 327 327 321 321 317 27 104 119 45 83 273 310 102 249 257 225 176 150 216 99 112 140 78 89 359 347 257 246 314 336 327 53 285 286 310 312 301 301 293 295 291
315 323 329 331 329 330 325 323 299 329 265 214 243 357 293 285 329 333 250 181 191 117 92 97 64 135 74 117 232 216 241 243 251 299 318 312 288 276 283 299 289 291 293 296 293
316 321 327 331 331 331 337 2 10 355 32 272 297 280 281 300 334 315 320 81 72 62 183 342 159 204 208 200 136 148 214 251 256 270 284 261 279 277 278 282 285 284 310 310 300
314 320 329 330 333 339 4 58 80 246 307 281 247 261 276 306 311 285 121 148 135 208 80 359 257 234 220 183 204 202 265 270 272 251 177 270 281 279 268 264 269 352 336 339 327
303 316 329 328 329 27 13 43 317 172 282 309 227 231 273 139 274 311 77 94 113 142 222 179 262 59 155 252 251 248 230 231 250 308 264 291 289 194 292 282 32 21 355 349 336
312 322 342 334 63 323 35 322 343 136 9 281 6 2 93 174 46 5 14 98 35 227 196 233 271 253 196 221 193 262 237 251 261 45 241 69 290 304 306 336 20 6 355 350 342
316 301 14 43 288 3 309 329 334 44 337 51 34 289 99 87 255 21 4 34 196 236 115 254 337 304 241 229 161 229 294 257 250 199 232 182 133 272 341 301 5 350 351 349 348
304 271 145 63 25 262 317 322 55 36 256 349 20 355 45 15 15 320 25 35 103 169 316 248 11 46 299 317 338 324 292 29 29 158 278 196 178 278 324 9 342 343 354 350 348
293 220 180 157 253 308 327 25 25 168 357 347 348 20 74 316 13 52 39 23 217 289 242 329 47 338 12 327 27 18 78 312 297 212 240 130 180 246 76 39 345 336 347 356 358
279 182 212 240 109 358 11 44 184 240 263 323 6 336 259 358 346 24 88 176 72 138 168 198 262 11 329 72 295 15 31 177 235 214 268 326 241 150 99 88 360 352 356 10 4
134 81 147 249 221 356 74 212 219 208 285 344 314 271 303 296 238 322 247 213 192 189 187 170 251 247 51 40 329 326 77 119 111 302 47 243 277 169 32 25 17 10 4 1 2
119 138 219 336 163 107 126 242 240 234 185 148 205 192 225 219 233 189 187 169 188 206 189 196 258 287 307 168 31 62 202 132 81 260 246 290 273 224 28 13 3 1 5 354 351
110 172 282 345 147 110 210 220 253 237 181 205 230 250 240 210 204 215 208 259 155 134 113 133 129 323 322 35 31 345 36 52 83 57 210 288 265 125 74 19 350 337 341 341 346
144 250 314 281 131 179 210 206 225 193 151 261 256 249 237 207 212 215 212 201 162 159 147 140 126 54 324 306 223 156 119 99 138 201 204 189 270 120 334 324 323 322 317 322 324
189 44 331 326 209 241 275 267 238 227 215 226 254 239 11 189 250 268 168 76 92 121 179 169 157 134 322 351 55 96 122 116 111 83 209 159 258 318 335 321 315 313 311 309 311
128 204 339 339 354 305 252 250 237 53 293 162 337 4 13 277 327 250 239 213 187 324 165 100 132 196 186 136 126 164 210 141 130 137 219 238 277 291 284 283 288 293 301 294 298
34 258 82 208 234 234 221 329 302 282 31 120 239 219 203 208 193 224 205 140 319 266 101 131 169 240 271 211 179 210 226 208 193 213 205 279 271 276 282 284 281 286 286 282 283
21 126 57 251 87 242 196 221 240 221 193 222 235 200 196 200 206 178 181 175 205 128 120 26 137 112 287 324 263 277 258 240 235 251 250 259 272 278 281 287 282 272 272 269 271
45 3 227 164 162 205 216 205 215 174 219 232 221 208 218 212 285 47 202 183 165 138 135 132 138 121 279 342 313 275 224 179 189 196 209 266 290 328 308 301 290 280 270 260 263